GFSSGP_850_dewp_024.txt.gz
Dewpoint
5 9 13 15 17 17 15 15 8 10 8 6 7 6 6 6 8 16 12 11 11 13 7 -4 6 9 12 7 7 7 6 5 5 6 7 7 9 6 5 9 14 14 14 14 13 14 13 11 14
5 9 12 14 16 16 14 10 10 9 7 6 7 6 5 6 8 13 14 12 12 14 13 1 7 10 11 8 8 9 6 5 2 -1 -4 -7 -6 -3 -0 3 5 6 12 14 14 14 13 13 12
5 10 12 15 14 14 15 10 9 7 7 6 5 6 5 6 6 12 13 12 12 13 15 14 3 9 11 10 9 8 6 -1 -7 -15 -18 -20 -21 -19 -18 -11 -3 1 5 8 10 12 13 14 13
10 11 9 12 12 11 13 7 7 7 8 7 6 5 5 6 7 10 12 13 12 13 14 14 7 7 13 12 9 7 3 -2 -10 -16 -18 -17 -17 -17 -17 -18 -20 -21 -12 -1 4 7 9 10 12
8 10 13 12 11 7 5 5 5 7 7 7 6 6 6 6 8 12 12 13 13 14 14 14 8 7 7 12 11 7 1 -3 -11 -17 -15 -14 -15 -17 -17 -19 -21 -21 -22 -22 -18 -8 0 6 11
6 5 9 8 6 2 1 3 4 5 5 6 5 5 5 6 3 10 12 13 13 14 14 14 10 0 7 12 11 8 3 -4 -14 -16 -13 -14 -15 -14 -13 -14 -18 -23 -25 -24 -23 -22 -17 -5 7
8 9 9 7 5 3 1 1 4 3 3 4 5 5 5 7 7 10 12 12 13 13 14 13 12 5 12 12 12 8 3 -5 -16 -14 -13 -14 -14 -13 -13 -11 -13 -18 -23 -25 -24 -23 -21 -18 -9
5 8 6 5 5 5 -1 -3 1 -0 2 1 5 6 3 5 6 11 11 11 12 11 11 11 13 11 7 10 13 9 4 -6 -16 -14 -12 -13 -12 -12 -14 -13 -10 -12 -19 -23 -22 -22 -21 -21 -18
3 6 4 2 2 4 -3 -2 -4 -2 1 0 -2 4 3 5 7 10 10 10 10 9 9 9 12 13 10 7 12 10 3 -4 -14 -13 -11 -12 -10 -11 -17 -13 -8 -9 -13 -20 -22 -22 -21 -19 -15
2 6 2 -2 -2 -0 -3 -5 -4 -5 -3 -3 -5 -4 2 3 6 9 10 10 10 9 9 9 9 13 13 14 11 11 4 -1 -13 -14 -10 -11 -9 -10 -16 -15 -9 -7 -9 -14 -21 -23 -23 -20 -17
-3 3 -1 -5 -6 -7 -3 -4 -7 -6 -2 -3 -3 -6 -2 2 5 8 9 9 9 9 9 9 8 10 12 13 13 12 8 -0 -11 -14 -10 -9 -9 -9 -12 -17 -13 -8 -7 -8 -15 -20 -22 -23 -23
-0 -4 -6 -7 -5 -5 -3 -4 -4 -6 -6 -6 -6 -7 -5 1 3 6 8 8 8 8 8 9 8 9 10 12 12 11 10 7 -3 -5 -10 -5 -9 -8 -10 -15 -16 -11 -7 -7 -11 -17 -22 -22 -21
-4 -4 -5 -5 -5 -5 -5 -4 -3 -4 -5 -6 -6 -7 -6 -3 -2 2 4 7 7 7 7 8 9 9 9 10 11 10 8 6 4 -2 -7 -8 -9 -9 -9 -12 -13 -13 -8 -6 -8 -14 -19 -19 -20
-5 -4 -4 -6 -6 -7 -5 -4 -5 -6 -6 -6 -7 -7 -6 -6 -4 -5 0 2 5 6 6 7 9 8 9 9 9 10 9 7 4 -2 -8 -8 -9 -8 -9 -10 -12 -12 -10 -7 -7 -10 -18 -19 -17
-2 -3 -4 -5 -7 -5 -4 -2 -3 -8 -7 -6 -6 -9 -9 -9 -9 -6 -5 -2 0 3 5 6 8 9 8 9 8 9 8 7 2 -2 -3 -9 -8 -8 -8 -9 -10 -11 -11 -8 -6 -8 -15 -19 -18
-5 -4 -1 -5 -6 -2 -4 -0 -2 -9 -8 -8 -9 -10 -11 -12 -12 -11 -10 -6 -4 -2 1 3 6 7 10 8 8 8 8 6 3 -1 -3 -6 -8 -8 -9 -8 -9 -10 -10 -9 -7 -7 -12 -17 -18
-2 -4 -4 -5 -9 -6 -4 -2 -6 -8 -10 -10 -10 -10 -11 -11 -11 -11 -8 -10 -10 -5 -4 -1 2 6 8 10 9 8 7 7 4 1 -1 -3 -9 -9 -9 -9 -10 -10 -10 -9 -8 -6 -9 -15 -15
-4 -6 -8 -6 -9 -8 -5 -4 -7 -8 -8 -7 -7 -8 -8 -8 -3 -2 -3 -3 -5 -6 -7 -4 -2 3 7 9 10 8 7 6 5 2 1 -0 -6 -10 -10 -10 -10 -10 -10 -9 -8 -7 -8 -14 -15
-7 -7 -6 -6 -5 -3 -1 -2 -4 -5 -5 -5 -4 -3 -2 -2 -3 -3 -2 -2 -2 -2 -1 -1 -1 -1 4 9 10 10 7 5 4 3 2 0 -1 -5 -9 -9 -9 -7 -9 -9 -8 -7 -7 -10 -16
-3 -2 -2 -3 -3 -4 -3 -2 -4 -4 -2 -2 -2 -4 -5 -5 -5 -5 -4 -3 -2 -2 -1 -0 -1 -1 -0 4 9 10 9 5 4 3 2 1 -1 -3 -6 -8 -6 -5 -6 -9 -8 -7 -7 -9 -12
-3 -2 -1 -1 -2 -3 -2 -1 -2 -2 -2 -4 -6 -7 -8 -8 -8 -6 -6 -5 -5 -4 -3 -2 -0 -0 0 0 6 9 8 6 4 3 3 1 0 -1 -3 -5 -4 -3 -5 -8 -9 -7 -6 -9 -10
-1 -2 -2 -1 -0 1 -3 2 -1 -1 -2 -4 -6 -6 -7 -8 -8 -7 -6 -5 -5 -5 -4 -3 -3 -3 -4 -1 1 7 9 7 5 4 4 3 1 0 -1 -2 -2 -3 -5 -7 -8 -7 -6 -9 -12
-2 -1 -1 0 1 1 1 3 -1 -1 -0 -2 -4 -7 -12 -10 -7 -6 -5 -5 -5 -5 -4 -4 -4 -2 -4 -10 -6 0 3 8 7 5 4 3 2 1 1 -0 -0 -2 -4 -6 -8 -7 -6 -7 -13
-3 -0 -1 -2 -1 4 0 2 -1 -1 -1 -7 -11 -14 -15 -13 -8 -6 -6 -5 -5 -4 -4 -3 -2 -2 -1 -1 -3 -4 0 2 8 7 5 4 3 2 1 1 0 -1 -3 -6 -7 -7 -6 -6 -10
-0 0 2 2 6 6 -2 -2 -2 -3 -9 -12 -13 -14 -14 -14 -10 -7 -7 -6 -5 -4 -4 -3 -2 -1 -0 1 2 0 -1 1 4 8 7 5 4 3 2 1 1 -0 -3 -5 -6 -6 -6 -6 -9
-2 -1 2 2 1 3 -2 -1 -1 -8 -13 -13 -12 -12 -13 -13 -10 -7 -6 -6 -5 -5 -5 -3 -2 -2 -1 -0 2 2 0 0 2 5 7 6 4 3 2 1 1 -0 -3 -5 -6 -6 -5 -6 -8
-3 -2 -6 -0 -1 0 -2 -5 -5 -10 -12 -11 -11 -12 -13 -13 -9 -7 -7 -6 -6 -6 -6 -4 -2 -4 -4 -2 1 3 3 -0 -0 1 6 6 5 3 2 2 1 -0 -2 -4 -6 -6 -5 -6 -8
-5 -7 -5 -5 -3 -3 -8 -8 -7 -9 -10 -10 -11 -12 -14 -13 -9 -8 -8 -7 -7 -6 -6 -3 -4 -5 -5 -5 -0 1 3 2 -1 -0 2 5 5 4 3 1 1 -0 -2 -4 -5 -6 -5 -6 -9
-8 -8 -9 -8 -7 -4 -0 -3 -9 -9 -9 -10 -11 -13 -14 -10 -8 -7 -7 -7 -7 -7 -5 -5 -6 -6 -5 -5 -2 1 2 3 -0 -1 0 3 4 4 3 1 1 -0 -2 -4 -5 -5 -5 -6 -9
-10 -10 -10 -0 -1 -2 -1 -2 -9 -10 -10 -11 -12 -14 -12 -9 -7 -7 -6 -7 -8 -6 -6 -6 -6 -5 -5 -4 -3 -2 1 2 1 -1 -1 0 2 2 3 1 0 -0 -2 -3 -5 -5 -5 -6 -9

GFSSGP_850_dewp_027.txt.gz
Dewpoint
5 8 11 14 15 15 15 15 12 8 8 7 6 6 6 7 11 15 11 12 11 7 0 -4 3 7 8 4 3 3 4 4 4 5 4 1 -0 -1 3 8 11 12 12 13 13 13 12 13 12
5 7 11 13 15 15 13 12 11 8 7 6 6 5 5 9 8 10 11 11 10 6 4 -2 2 7 8 6 6 6 5 3 -1 -7 -14 -17 -14 -9 -4 0 4 7 9 10 12 13 13 12 13
7 8 11 13 14 14 12 11 9 7 7 6 6 6 4 7 10 9 11 11 10 11 12 0 1 7 8 7 7 7 5 -3 -7 -16 -20 -21 -21 -20 -21 -17 -6 1 5 4 5 9 11 13 12
8 11 10 11 12 11 10 9 6 8 7 7 6 6 6 6 4 6 10 12 12 14 13 13 11 3 8 8 8 7 3 -2 -9 -16 -20 -19 -18 -18 -19 -20 -22 -21 -13 -3 1 4 6 10 12
7 9 12 12 11 7 9 7 5 6 6 7 6 6 6 7 6 6 12 9 12 13 14 14 13 5 7 10 9 7 2 -1 -9 -16 -17 -16 -17 -16 -15 -17 -21 -23 -22 -22 -18 -9 -0 7 12
6 8 9 8 6 3 -0 2 3 3 3 5 6 5 7 10 8 8 9 8 13 14 14 14 14 13 0 10 11 8 3 -0 -10 -16 -15 -16 -15 -14 -14 -12 -14 -20 -25 -24 -23 -21 -13 3 8
7 8 7 6 5 2 1 -1 3 1 1 2 5 5 7 7 8 5 6 12 13 14 14 14 13 12 6 6 12 10 5 1 -11 -16 -15 -15 -14 -14 -16 -14 -11 -14 -20 -24 -24 -23 -20 -14 -6
5 7 5 3 3 3 -0 -4 -2 -1 1 0 -1 5 6 5 2 9 10 12 13 14 13 13 12 10 7 -3 11 11 6 1 -8 -16 -15 -14 -14 -13 -17 -16 -12 -10 -14 -20 -22 -22 -21 -19 -14
4 2 3 -0 -1 1 -3 -3 -5 -6 -4 -2 -1 -2 2 3 4 10 11 11 12 13 12 11 9 9 9 10 3 12 8 3 -5 -14 -15 -13 -13 -12 -17 -20 -13 -9 -9 -15 -21 -21 -21 -20 -19
2 4 0 -2 -4 -4 -5 -4 -4 -5 -6 -7 -6 -6 1 4 4 8 11 10 11 11 10 9 9 9 9 11 9 5 11 5 -1 -12 -14 -12 -13 -12 -13 -19 -17 -11 -8 -10 -17 -21 -21 -20 -17
-1 0 -1 -3 -6 -6 -4 -4 -4 -5 -4 -7 -5 -3 -3 4 6 6 9 10 10 10 10 9 9 9 9 11 10 7 10 8 1 -8 -12 -11 -12 -12 -11 -16 -19 -16 -9 -7 -11 -18 -21 -21 -20
-2 -2 -3 -4 -5 -4 -3 -5 -4 -4 -5 -7 -7 -6 -6 1 3 5 7 9 10 10 9 9 9 9 9 12 10 10 8 10 6 -2 -11 -11 -12 -11 -10 -12 -16 -16 -13 -9 -7 -12 -19 -21 -21
-4 -5 -4 -4 -5 -5 -6 -4 -4 -5 -6 -6 -6 -6 -7 -7 0 2 3 6 8 9 9 8 9 8 8 10 10 12 12 10 9 6 -7 -6 -10 -9 -9 -10 -13 -15 -15 -13 -8 -8 -13 -19 -19
-4 -3 -3 -5 -7 -6 -5 -5 -5 -6 -8 -8 -6 -6 -6 -7 -8 -7 -6 -1 4 5 6 7 8 8 7 9 9 10 11 10 10 6 5 -1 -8 -7 -8 -10 -10 -12 -14 -13 -11 -7 -8 -15 -19
-5 -2 -3 -4 -5 -4 -5 -4 -6 -9 -8 -7 -6 -9 -10 -11 -8 -5 -3 -3 -4 -1 2 6 7 7 8 7 8 9 9 10 9 7 6 4 -5 -6 -7 -8 -9 -10 -12 -12 -12 -9 -7 -10 -16
-6 -5 -4 -5 -6 -3 -7 -3 -5 -10 -9 -10 -11 -11 -10 -3 -2 -2 -2 -4 -4 -2 -0 3 4 6 7 8 7 8 9 9 9 8 7 5 0 -5 -6 -6 -8 -9 -10 -11 -11 -10 -8 -8 -14
-3 -4 -6 -7 -9 -4 -4 -4 -6 -9 -8 -8 -9 -8 -3 -3 -3 -3 -2 -2 -1 -1 -1 -0 2 10 8 7 8 8 8 8 8 8 8 6 0 -2 -5 -5 -7 -8 -9 -10 -11 -10 -9 -7 -10
-5 -7 -8 -7 -9 -6 -3 -3 -4 -6 -5 -3 -3 -3 -5 -6 -5 -5 -5 -4 -3 -2 -1 -0 1 5 9 11 10 9 9 8 8 8 8 7 4 0 -3 -5 -6 -7 -9 -10 -10 -10 -9 -7 -9
-5 -5 -4 -4 -4 -3 -3 -2 -4 -2 -3 -6 -7 -8 -7 -6 -6 -6 -6 -6 -5 -5 -4 -4 -2 -1 2 6 10 11 9 9 8 8 7 7 6 3 -0 -3 -5 -6 -8 -10 -9 -9 -9 -8 -8
-4 -2 -2 -2 -2 -3 -2 -2 -2 -5 -6 -7 -8 -8 -8 -7 -7 -7 -6 -6 -6 -6 -6 -6 -6 -6 -6 -6 -2 3 9 8 8 9 8 6 6 5 2 -0 -4 -6 -7 -8 -8 -8 -9 -8 -7
-2 -2 -1 -0 -1 -2 -3 -2 -0 -5 -6 -7 -10 -8 -8 -8 -8 -9 -10 -9 -9 -9 -5 -5 -7 -7 -8 -7 -8 -7 4 7 6 6 6 5 5 5 4 2 -1 -4 -6 -7 -6 -7 -9 -9 -7
-1 -2 -1 0 1 -0 -2 3 -1 -3 -4 -5 -12 -11 -8 -8 -7 -7 -8 -9 -7 -9 -7 -4 -3 -5 -7 -8 -7 -4 -3 -4 0 5 4 5 5 4 4 4 1 -1 -3 -5 -5 -5 -7 -8 -7
-1 -1 -0 1 2 1 1 2 1 -2 -6 -11 -14 -14 -14 -8 -8 -7 -7 -8 -9 -6 -6 -5 -3 -2 -2 -2 -4 -0 2 2 -2 -0 4 6 4 4 4 4 2 1 -1 -3 -3 -4 -6 -7 -7
-2 -0 -3 -2 0 2 -1 2 1 -2 -9 -12 -12 -13 -14 -14 -8 -7 -7 -8 -9 -7 -7 -6 -6 -4 -2 -2 -2 -0 2 3 2 1 0 4 7 4 4 3 3 2 1 -0 -1 -3 -5 -6 -7
-3 -2 1 -0 3 4 -2 -3 -2 -11 -11 -11 -11 -13 -14 -14 -7 -7 -7 -8 -7 -6 -9 -6 -6 -3 -3 -4 -5 -5 -2 2 3 3 1 1 5 6 5 4 3 3 3 2 0 -2 -4 -5 -6
-2 -2 2 3 3 4 -2 -2 -3 -12 -11 -11 -12 -12 -14 -14 -8 -8 -8 -8 -7 -7 -8 -9 -6 -3 -5 -6 -5 -6 -6 -2 -0 1 3 0 1 6 6 5 4 4 4 3 1 -0 -3 -5 -5
-3 -4 -6 -3 -1 0 0 -4 -10 -10 -10 -10 -11 -11 -13 -14 -9 -8 -7 -7 -7 -7 -8 -6 -5 -6 -5 -5 -6 -5 -5 -4 -4 -2 -0 2 -1 1 6 7 5 4 4 3 2 0 -2 -4 -5
-7 -7 -4 -5 -4 -3 -5 -6 -2 -8 -8 -10 -10 -11 -11 -10 -8 -7 -7 -8 -9 -8 -8 -6 -6 -8 -7 -7 -6 -4 -3 -4 -4 -3 -2 -0 -1 -1 5 6 5 4 3 3 2 0 -2 -4 -4
-9 -9 -9 -7 -6 -4 -2 -3 -9 -8 -8 -9 -10 -11 -11 -9 -8 -7 -8 -9 -9 -7 -7 -7 -7 -9 -5 -5 -3 -2 -2 -2 -2 0 1 2 0 -1 2 5 5 4 3 3 2 0 -1 -3 -4
-10 -11 -10 -4 -3 -2 -2 -2 -8 -8 -9 -10 -10 -11 -11 -7 -7 -7 -8 -9 -7 -6 -6 -6 -6 -6 -5 -4 -3 -4 -4 -2 -1 0 0 -1 1 1 -1 2 5 4 3 3 2 0 -1 -3 -4

GFSSGP_850_dewp_030.txt.gz
Dewpoint
5 8 10 14 13 14 14 13 11 9 7 7 6 6 7 7 9 8 5 8 9 6 4 5 6 7 6 3 3 4 4 4 4 4 -1 -5 -5 -4 2 7 6 7 10 12 12 12 12 10 10
7 9 12 13 14 15 12 11 10 8 6 6 6 6 6 8 7 5 5 5 9 9 2 -2 2 7 6 3 4 4 4 4 -0 -7 -15 -18 -14 -7 -2 2 3 2 5 8 11 12 12 12 11
7 8 11 13 14 13 12 10 9 7 6 6 7 6 5 6 6 6 4 3 7 9 6 5 -0 7 7 5 5 5 3 -2 -7 -16 -21 -22 -22 -21 -17 -7 -2 -1 -0 2 6 10 12 12 11
6 11 10 11 12 10 10 8 7 7 7 6 6 6 6 5 4 5 4 5 6 8 11 5 2 6 8 7 7 6 3 -1 -9 -16 -20 -19 -19 -20 -20 -21 -22 -17 -9 -5 0 5 10 12 12
6 9 11 11 9 7 5 7 6 5 5 7 6 6 6 5 5 4 3 6 6 7 11 12 13 12 5 9 9 7 4 -0 -7 -14 -18 -17 -17 -15 -15 -19 -22 -22 -23 -22 -14 -3 5 11 12
5 7 8 8 6 4 0 -3 3 2 2 5 6 6 7 7 7 3 9 7 7 8 11 13 13 13 10 8 10 8 4 0 -5 -14 -16 -16 -15 -15 -15 -13 -15 -21 -24 -24 -22 -18 -1 10 12
6 7 6 6 5 2 1 -2 0 -2 -1 1 2 5 7 8 6 3 8 8 9 12 13 14 14 12 11 8 6 11 6 2 -5 -13 -15 -15 -14 -15 -16 -15 -13 -15 -20 -23 -24 -22 -18 -10 3
5 6 5 3 2 -1 -1 -5 -5 -6 -2 -0 -0 5 7 4 7 8 9 11 13 13 14 14 14 13 8 7 3 10 9 3 -2 -11 -15 -14 -14 -14 -17 -16 -13 -12 -15 -20 -22 -22 -21 -15 -7
4 -1 2 -1 -3 -3 -4 -4 -6 -7 -7 -8 -4 -4 -4 2 7 11 11 13 13 13 13 14 13 12 8 8 9 4 11 7 1 -8 -14 -14 -14 -12 -16 -16 -13 -11 -11 -15 -20 -21 -21 -20 -14
2 1 -3 -3 -4 -4 -5 -4 -5 -5 -5 -6 -8 -7 -2 1 5 8 11 12 12 12 13 13 12 10 9 8 10 10 4 10 5 -3 -11 -13 -13 -11 -13 -16 -14 -11 -9 -11 -16 -20 -20 -19 -16
1 -1 -2 -3 -5 -3 -4 -5 -4 -5 -4 -8 -8 -7 -6 2 4 7 10 9 9 9 12 11 10 9 9 8 8 10 10 5 10 3 -7 -12 -12 -11 -10 -14 -16 -15 -11 -9 -10 -16 -20 -18 -14
-2 -2 -2 -3 -4 -3 -3 -4 -4 -5 -7 -8 -6 -6 -6 -4 4 6 8 8 10 11 11 10 10 9 8 9 8 9 10 9 8 9 -0 -9 -11 -12 -9 -10 -14 -15 -13 -10 -8 -10 -16 -20 -20
-4 -4 -4 -4 -4 -5 -7 -5 -5 -6 -8 -7 -7 -6 -5 -5 -1 6 7 9 10 10 10 10 10 9 9 8 8 8 9 9 8 8 8 1 -8 -10 -8 -7 -10 -13 -14 -13 -9 -8 -10 -16 -19
-3 -3 -3 -5 -5 -5 -5 -5 -5 -7 -7 -8 -7 -7 -7 -5 -4 -4 -2 1 4 7 9 10 10 9 9 8 8 7 7 7 9 8 7 6 5 -4 -7 -6 -8 -10 -11 -12 -11 -9 -8 -12 -17
-4 -5 -5 -6 -5 -5 -4 -5 -4 -8 -8 -9 -8 -5 -3 -2 -3 -3 -2 -1 -1 -1 3 5 6 9 10 8 8 7 7 8 9 7 7 7 5 3 3 -6 -6 -7 -9 -10 -11 -11 -9 -8 -12
-5 -5 -4 -7 -9 -4 -6 -3 -6 -8 -7 -7 -3 -4 -5 -5 -5 -4 -3 -3 -2 -0 0 1 3 9 10 10 11 12 11 8 9 9 9 8 7 6 5 2 -5 -7 -7 -8 -9 -10 -9 -9 -9
-5 -5 -6 -7 -10 -5 -4 -4 -5 -3 -5 -3 -5 -5 -5 -5 -6 -5 -5 -5 -5 -4 -2 1 3 6 9 10 10 11 11 12 11 10 9 8 8 8 7 5 -1 -5 -6 -7 -8 -9 -9 -9 -9
-4 -6 -8 -8 -8 -3 -3 -2 -5 -4 -4 -6 -6 -6 -6 -6 -7 -8 -8 -8 -7 -6 -6 -6 -4 -0 3 7 8 10 10 10 11 10 9 9 8 8 7 6 5 -1 -5 -5 -6 -7 -8 -8 -8
-6 -5 -3 -4 -4 -3 -3 -2 -5 -7 -8 -8 -7 -6 -7 -8 -10 -11 -12 -13 -14 -13 -11 -10 -8 -7 -7 -6 -3 1 4 9 9 9 8 8 8 8 7 5 5 2 -1 -5 -5 -6 -7 -7 -8
-3 -2 -2 -2 -2 -3 -3 -2 -5 -7 -7 -8 -7 -7 -8 -8 -9 -10 -11 -12 -14 -15 -14 -12 -9 -9 -10 -9 -8 -7 -5 2 4 7 8 5 5 6 6 6 6 3 1 -1 -5 -5 -6 -7 -7
-3 -2 -2 -1 -1 -3 -3 -0 -4 -5 -11 -11 -7 -7 -7 -7 -8 -8 -9 -10 -11 -12 -13 -13 -9 -6 -5 -7 -9 -9 -8 -6 -5 -0 3 6 6 2 6 6 5 4 3 1 -2 -5 -5 -6 -6
-1 -2 -1 -0 1 0 -2 1 -0 -4 -10 -13 -13 -10 -7 -7 -7 -8 -9 -10 -8 -10 -12 -11 -11 -7 -3 -3 -4 -4 -3 -1 -2 -1 -1 -1 4 5 2 3 4 4 3 2 1 -2 -4 -5 -5
-1 -2 -1 -0 1 1 1 2 1 -7 -10 -11 -12 -13 -14 -8 -7 -7 -9 -10 -9 -9 -10 -10 -13 -6 -3 -3 -3 -4 -6 -7 -5 -1 -1 -1 -1 0 5 4 3 3 3 4 2 0 -2 -4 -4
-3 -4 -4 -0 1 2 -1 2 2 -7 -10 -11 -12 -13 -14 -14 -8 -8 -9 -10 -10 -9 -10 -13 -10 -6 -4 -5 -5 -6 -6 -6 -8 -7 -5 -2 -1 1 1 4 5 3 3 3 4 3 0 -2 -3
-4 -2 -1 -2 2 0 -1 -3 -3 -11 -11 -11 -12 -12 -13 -14 -8 -8 -8 -8 -9 -9 -11 -11 -13 -8 -5 -5 -5 -5 -6 -6 -5 -5 -5 -5 -5 -5 -1 0 3 5 3 2 3 3 2 0 -1
-3 -2 -1 -6 0 2 -1 -4 -7 -11 -11 -11 -11 -11 -11 -12 -8 -7 -7 -8 -8 -10 -8 -7 -9 -7 -6 -7 -8 -10 -7 -5 -3 -2 -3 -3 -5 -2 -2 -0 -1 3 5 3 3 4 3 2 0
-6 -4 -4 -3 -2 -1 -1 -8 -10 -10 -10 -10 -10 -11 -11 -11 -8 -7 -8 -8 -9 -10 -7 -7 -7 -7 -7 -7 -8 -9 -4 -3 -4 -2 -2 -2 -4 0 -1 1 -1 -0 4 5 3 4 4 4 2
-8 -7 -2 -5 -6 -4 -5 -5 -4 -8 -8 -9 -10 -10 -10 -10 -7 -7 -7 -8 -8 -9 -9 -8 -6 -5 -6 -7 -8 -10 -8 -4 -5 -5 -4 -2 -1 -2 -3 -0 0 -1 4 5 4 3 4 3 2
-9 -9 -8 -7 -6 -5 -4 -5 -8 -8 -8 -9 -10 -10 -10 -10 -7 -6 -7 -7 -8 -7 -6 -5 -5 -6 -7 -6 -5 -5 -8 -9 -4 -4 -5 -1 -1 -2 -1 -1 -0 -0 2 4 4 4 3 3 3
-11 -10 -9 -5 -7 -3 -2 -2 -8 -8 -9 -10 -9 -10 -10 -7 -6 -6 -6 -6 -7 -7 -6 -5 -5 -7 -7 -5 -6 -8 -8 -5 -4 -5 -4 -4 -2 -2 -1 -0 -1 1 2 3 3 3 3 3 3

GFSSGP_850_dewp_033.txt.gz
Dewpoint
7 9 9 13 12 13 13 12 11 9 7 7 6 6 6 6 6 6 3 7 5 3 6 5 7 8 7 4 4 3 3 4 4 4 1 -5 -6 -2 5 4 6 9 11 11 11 11 9 9 9
7 7 11 12 13 14 12 11 10 8 6 6 6 6 7 6 5 4 3 4 5 4 2 3 6 8 7 3 3 3 3 3 2 -2 -10 -15 -11 -5 -1 1 2 4 8 10 11 11 10 10 11
7 10 10 12 13 12 12 9 9 7 6 7 7 6 5 5 6 4 -1 1 4 6 1 -1 -0 7 7 4 5 4 4 1 -4 -12 -20 -21 -19 -14 -6 -3 -3 -1 3 6 10 11 11 10 10
6 10 10 11 11 9 10 8 7 7 7 7 6 6 5 6 5 3 1 3 3 6 6 9 -1 7 8 7 7 6 4 -2 -7 -15 -21 -20 -19 -20 -20 -15 -11 -10 -4 0 5 10 11 11 10
5 8 9 8 7 6 2 0 5 5 5 6 6 5 6 6 5 4 1 4 4 5 8 9 6 9 6 8 8 8 6 -1 -7 -13 -18 -17 -18 -17 -18 -20 -20 -20 -17 -8 1 6 10 11 11
5 6 6 5 5 3 1 -2 2 -1 1 3 6 6 6 6 5 6 3 4 5 6 7 10 10 11 12 7 8 8 7 0 -5 -11 -16 -16 -15 -14 -14 -15 -19 -22 -23 -21 -11 1 9 11 11
6 6 5 6 4 -1 -0 -5 -3 -4 -4 0 3 5 5 5 7 8 6 6 6 9 10 10 11 13 12 11 8 8 8 3 -2 -9 -14 -15 -15 -15 -15 -14 -15 -18 -22 -23 -21 -14 15 13 13
5 5 5 3 1 -3 -2 -6 -4 -6 -7 -7 -1 2 3 -0 8 10 10 8 9 10 11 12 13 14 13 9 7 6 8 7 2 -4 -12 -14 -15 -14 -14 -14 -13 -14 -18 -21 -22 -19 -11 0 10
3 -2 0 -0 -2 -4 -5 -5 -6 -6 -6 -9 -8 -7 -2 -4 8 11 11 11 11 12 12 13 14 14 13 10 7 8 4 8 6 1 -8 -14 -14 -13 -13 -15 -12 -12 -13 -17 -20 -20 -19 -13 -5
0 -4 -8 -5 -4 -5 -4 -4 -5 -5 -6 -9 -9 -8 -6 -5 6 9 9 10 11 11 11 12 13 13 12 10 6 5 8 7 8 6 -2 -10 -13 -13 -11 -14 -13 -11 -11 -13 -16 -19 -18 -17 -10
1 -2 -3 -3 -3 -3 -3 -4 -4 -5 -5 -8 -7 -5 -5 -5 8 12 13 13 13 14 12 10 11 12 12 9 8 6 5 7 7 7 6 -3 -11 -13 -10 -10 -14 -12 -11 -10 -13 -17 -18 -16 -12
-2 -2 -2 -2 -3 -3 -3 -4 -4 -5 -7 -5 -5 -4 -5 -4 5 10 12 12 12 12 13 14 14 13 12 10 9 8 7 7 7 5 6 8 3 -6 -11 -8 -10 -13 -12 -10 -10 -12 -15 -16 -15
-3 -4 -4 -4 -5 -5 -4 -5 -6 -8 -6 -4 -4 -4 -3 -3 -2 0 4 5 8 10 10 11 13 14 13 12 10 9 8 8 8 7 6 4 3 7 1 -10 -8 -10 -12 -11 -10 -9 -10 -14 -17
-3 -3 -4 -7 -6 -5 -4 -5 -5 -6 -6 -5 -4 -4 -3 -3 -3 -3 -2 -1 0 1 3 6 9 10 11 13 12 11 11 11 11 10 8 8 6 5 5 -1 -8 -9 -9 -11 -11 -9 -9 -11 -14
-3 -5 -6 -7 -8 -4 -4 -6 -4 -4 -4 -4 -5 -5 -4 -4 -4 -4 -4 -4 -2 -0 1 3 5 5 8 10 12 12 12 12 12 11 11 10 9 7 5 3 3 -3 -8 -8 -10 -10 -9 -9 -10
-4 -5 -5 -7 -8 -6 -6 -4 -4 -3 -4 -4 -5 -5 -6 -6 -7 -6 -5 -5 -5 -4 -2 -0 4 8 10 11 13 14 14 13 13 13 12 12 10 9 7 7 6 3 -2 -7 -8 -9 -9 -9 -9
-5 -5 -7 -8 -7 -3 -4 -2 -6 -4 -5 -5 -6 -7 -8 -9 -10 -11 -11 -11 -10 -9 -8 -6 -5 -2 6 8 8 11 11 12 13 13 13 12 11 9 8 8 7 4 1 -2 -6 -7 -8 -8 -9
-4 -6 -7 -7 -6 -3 -2 -3 -7 -7 -6 -6 -7 -8 -8 -9 -10 -11 -13 -14 -15 -15 -15 -14 -12 -10 -8 -7 -1 1 8 9 10 11 11 13 12 10 8 7 7 4 2 1 -2 -5 -7 -7 -8
-6 -5 -4 -4 -4 -3 -3 -4 -6 -7 -7 -8 -8 -8 -8 -8 -10 -11 -12 -13 -14 -16 -17 -18 -18 -17 -16 -14 -10 -8 -5 3 5 7 9 10 10 9 8 6 4 7 3 2 2 -2 -4 -6 -7
-3 -2 -2 -3 -2 -2 -4 -4 -6 -7 -7 -7 -7 -7 -8 -8 -10 -11 -12 -14 -15 -16 -17 -18 -18 -16 -12 -11 -8 -8 -8 -5 -3 -1 3 6 6 6 4 2 1 1 2 3 2 1 -1 -4 -5
-3 -3 -2 -1 -1 -3 -3 -2 -5 -10 -12 -9 -7 -7 -7 -8 -9 -10 -12 -13 -13 -13 -14 -15 -18 -16 -9 -7 -7 -9 -10 -9 -10 -8 -5 -2 1 2 5 5 2 -1 -1 4 3 3 1 -0 -3
-2 -3 -2 -0 1 -1 -2 1 -3 -8 -12 -12 -13 -11 -7 -7 -8 -9 -10 -11 -12 -12 -13 -13 -14 -14 -15 -8 -5 -6 -6 -6 -7 -8 -10 -9 -5 -2 0 2 4 2 -1 -1 -0 3 3 2 -1
-1 -2 -1 -1 1 0 0 2 0 -10 -10 -11 -12 -13 -13 -9 -7 -8 -9 -10 -11 -11 -12 -12 -12 -12 -13 -14 -10 -5 -6 -8 -7 -6 -8 -9 -10 -8 -4 -2 0 3 4 2 -1 -1 2 3 1
-5 -5 -3 0 1 1 -2 1 1 -4 -10 -11 -11 -11 -12 -12 -10 -8 -9 -9 -10 -10 -11 -11 -11 -11 -12 -11 -9 -8 -10 -11 -8 -6 -2 -2 -4 -7 -7 -8 -8 -2 0 3 5 2 0 2 2
-4 -5 -6 -6 0 -1 -1 -1 -3 -11 -11 -11 -11 -11 -11 -11 -12 -8 -8 -9 -9 -9 -10 -10 -9 -8 -8 -9 -8 -7 -8 -8 -4 -2 -2 -3 -3 -3 -4 -6 -6 -3 -1 -0 1 5 4 1 1
-4 -3 -5 -8 -5 -2 -1 -3 -7 -11 -11 -10 -10 -11 -11 -10 -11 -8 -8 -8 -8 -9 -9 -9 -8 -9 -8 -8 -7 -7 -7 -8 -9 -5 -4 -4 -5 -4 -3 -2 -3 -4 -0 -0 -1 1 5 4 1
-7 -5 -5 -4 -4 -2 -2 -5 -10 -10 -10 -10 -9 -10 -10 -10 -10 -7 -7 -7 -7 -7 -7 -7 -6 -6 -6 -6 -7 -7 -6 -7 -7 -9 -11 -4 -6 -4 -1 -1 -3 -3 -2 0 -0 0 3 5 4
-8 -7 -3 -5 -7 -6 -7 -7 -4 -9 -8 -9 -10 -9 -10 -10 -10 -7 -7 -6 -6 -6 -7 -7 -7 -7 -6 -6 -6 -6 -5 -5 -6 -10 -9 -4 -5 -3 -2 -3 -1 -4 -2 -2 0 2 3 4 4
-9 -9 -7 -7 -6 -5 -4 -7 -9 -9 -8 -9 -9 -9 -8 -7 -7 -6 -6 -6 -6 -7 -10 -8 -7 -6 -5 -6 -7 -7 -7 -9 -11 -10 -14 -12 -7 -4 -4 -3 -2 -2 -1 -2 1 1 3 4 4
-11 -11 -10 -5 -7 -4 -3 -2 -9 -8 -9 -9 -9 -9 -8 -6 -7 -7 -7 -8 -8 -8 -8 -5 -5 -5 -5 -5 -6 -7 -13 -13 -9 -8 -9 -7 -5 -4 -3 -4 -5 -3 -0 -1 -3 1 3 3 3

GFSSGP_850_dewp_036.txt.gz
Dewpoint
6 7 9 12 12 11 12 12 11 10 8 7 6 5 6 6 4 4 3 6 5 3 3 4 6 6 5 6 7 5 3 3 4 4 2 -1 -2 3 5 5 9 13 12 11 11 10 9 9 8
6 7 10 11 12 12 12 10 11 9 7 6 6 6 6 5 5 4 2 2 3 1 2 2 6 7 7 5 5 3 2 3 3 2 -4 -9 -6 -2 3 5 6 9 11 11 11 12 10 10 11
6 10 9 11 12 10 10 9 9 7 7 7 6 6 5 5 6 4 0 1 2 3 -1 1 4 7 7 4 2 2 3 3 1 -5 -15 -17 -12 -6 -1 2 2 5 12 12 11 12 10 13 12
5 9 9 9 9 8 9 4 7 7 7 7 6 5 5 6 6 4 1 1 2 5 3 1 -1 5 7 4 4 4 4 1 -3 -11 -19 -20 -18 -17 -8 -3 -3 2 3 8 10 11 13 13 13
5 6 5 5 5 4 2 0 2 2 3 4 6 5 6 6 6 5 3 2 2 4 7 9 0 5 5 7 6 6 5 0 -4 -11 -17 -17 -17 -17 -18 -17 -14 -12 -5 1 4 10 13 12 12
5 4 2 2 3 2 1 -4 1 -4 -3 -0 3 6 6 7 7 6 5 4 4 6 7 8 10 11 12 11 6 8 7 4 -1 -8 -14 -16 -16 -14 -15 -16 -18 -20 -18 -14 2 6 13 11 12
5 3 3 5 3 -1 -1 -6 -3 -6 -9 -0 -2 3 3 -1 5 7 6 7 6 7 9 10 10 12 12 11 9 8 8 8 2 -4 -11 -15 -15 -14 -15 -15 -15 -18 -21 -21 -13 4 13 13 12
4 3 5 4 1 -5 -3 -6 -4 -6 -7 -8 -8 2 -1 -6 -1 10 8 8 8 9 10 11 12 13 13 12 6 5 5 8 7 1 -6 -13 -15 -14 -14 -15 -14 -14 -17 -20 -20 -14 14 14 14
2 -3 -2 -1 -1 -6 -5 -4 -6 -5 -6 -9 -8 -6 -4 -3 4 11 11 10 10 10 11 12 12 13 14 13 9 5 5 3 2 7 3 -6 -13 -15 -13 -15 -14 -13 -13 -16 -19 -18 -12 -2 -2
-2 -7 -10 -6 -5 -4 -4 -4 -4 -5 -5 -7 -5 -5 -5 -5 11 13 12 12 12 12 12 13 14 14 14 14 11 7 6 6 5 3 7 5 -5 -13 -15 -13 -15 -14 -12 -12 -14 -17 -17 -14 -8
0 -4 -4 -3 -3 -2 -3 -4 -4 -4 -4 -2 -2 -3 -3 -2 10 14 13 13 13 13 13 13 14 14 14 14 13 10 8 7 8 5 2 7 6 0 -8 -14 -12 -14 -15 -12 -11 -13 -15 -14 -11
-1 -2 -2 -2 -3 -3 -3 -4 -5 -3 -1 -2 -3 -3 -3 -2 4 7 9 10 11 11 12 12 13 14 14 14 14 13 10 10 10 10 7 7 7 7 2 -8 -11 -11 -13 -14 -12 -11 -12 -14 -13
-3 -4 -4 -4 -6 -5 -4 -5 -4 -3 -3 -4 -4 -4 -4 -3 -2 -1 -0 1 3 4 7 9 11 11 12 14 15 14 12 11 11 11 10 8 8 6 3 0 -5 -9 -9 -12 -13 -12 -10 -11 -14
-3 -3 -5 -8 -7 -5 -5 -4 -5 -3 -4 -4 -4 -4 -4 -4 -4 -4 -3 -2 -1 1 2 4 5 7 10 11 14 15 14 12 12 12 11 10 9 8 6 3 -1 -5 -7 -8 -11 -11 -11 -10 -11
-3 -6 -6 -7 -8 -4 -5 -4 -3 -3 -5 -5 -6 -6 -5 -5 -5 -6 -6 -6 -5 -4 -2 2 5 7 8 12 15 15 15 15 14 13 12 12 11 10 9 6 3 1 -2 -5 -8 -9 -10 -11 -11
-4 -6 -6 -8 -5 -4 -6 -3 -5 -4 -5 -6 -7 -8 -10 -11 -11 -12 -12 -11 -11 -10 -8 -7 -1 5 8 8 10 13 13 14 15 14 14 13 13 12 11 9 7 5 3 1 -3 -6 -8 -9 -10
-5 -5 -7 -7 -4 -4 -3 -3 -6 -6 -7 -7 -7 -8 -10 -11 -12 -12 -14 -15 -16 -17 -17 -17 -14 -10 -6 -2 1 5 8 10 11 12 13 14 14 14 13 11 9 6 5 4 2 -2 -5 -7 -8
-5 -5 -7 -7 -5 -3 -4 -5 -7 -7 -8 -8 -8 -9 -10 -11 -11 -12 -14 -15 -16 -17 -19 -20 -21 -20 -17 -12 -7 -3 1 3 5 7 9 11 12 13 13 12 10 6 4 3 2 2 -1 -4 -5
-6 -5 -4 -4 -4 -4 -5 -5 -7 -7 -8 -8 -8 -8 -9 -11 -12 -13 -13 -14 -15 -16 -16 -17 -17 -17 -20 -22 -23 -17 -12 -6 -2 1 3 5 7 9 11 12 11 8 6 4 2 1 -0 0 -2
-3 -3 -3 -3 -2 -4 -4 -5 -7 -7 -7 -7 -8 -8 -9 -9 -11 -12 -13 -13 -14 -14 -14 -14 -14 -14 -15 -15 -15 -18 -16 -13 -11 -10 -8 -3 0 3 5 6 8 8 6 5 2 1 -1 1 0
-3 -3 -3 -2 -1 -4 -5 -4 -7 -11 -10 -7 -7 -8 -8 -8 -9 -10 -11 -12 -12 -12 -12 -13 -13 -14 -14 -14 -14 -14 -13 -15 -15 -13 -13 -12 -11 -8 -2 1 4 7 5 3 2 0 -1 -1 1
-1 -3 -2 -1 0 -2 -3 -1 -4 -9 -12 -13 -13 -12 -10 -8 -7 -9 -10 -11 -11 -10 -11 -11 -11 -11 -12 -12 -11 -10 -8 -9 -10 -13 -11 -8 -8 -10 -10 -8 -4 -0 3 4 3 -1 -1 -1 -1
-1 -4 -2 -1 0 -0 -0 2 0 -10 -10 -12 -12 -11 -12 -13 -12 -9 -9 -9 -10 -10 -10 -10 -10 -11 -11 -11 -12 -10 -9 -9 -9 -9 -9 -5 -4 -6 -6 -7 -7 -8 -7 -1 2 3 1 -0 -1
-5 -5 -4 -0 0 -1 -2 1 -1 -8 -10 -11 -11 -11 -11 -11 -11 -12 -9 -9 -9 -10 -9 -9 -9 -9 -10 -10 -9 -9 -8 -8 -8 -8 -9 -4 -3 -4 -6 -6 -6 -6 -6 -6 -3 -0 2 4 2
-4 -9 -8 -9 -2 -2 -2 -0 -2 -7 -11 -11 -11 -11 -10 -11 -10 -11 -10 -9 -8 -8 -8 -8 -8 -8 -8 -8 -8 -8 -7 -7 -7 -7 -8 -9 -9 -8 -7 -8 -6 -4 -6 -6 -5 -2 -1 -0 3
-3 -4 -6 -12 -9 -5 -2 -2 -5 -11 -11 -10 -10 -10 -10 -10 -11 -10 -9 -7 -8 -7 -7 -6 -7 -7 -7 -7 -7 -6 -6 -6 -6 -5 -5 -6 -10 -9 -5 -7 -5 -1 -4 -5 -6 -4 -1 -1 -0
-6 -5 -5 -5 -4 -4 -5 -5 -9 -11 -11 -10 -9 -9 -10 -9 -9 -9 -9 -8 -7 -7 -7 -8 -8 -10 -9 -7 -6 -6 -5 -6 -6 -5 -5 -8 -9 -10 -6 -5 -0 -1 -3 -4 -6 -4 -2 -0 -0
-8 -8 -6 -6 -7 -7 -8 -8 -6 -9 -9 -9 -9 -9 -9 -8 -8 -8 -8 -8 -9 -10 -10 -9 -9 -9 -9 -7 -6 -5 -5 -5 -6 -7 -12 -11 -6 -8 -7 -4 -4 -4 -3 -4 -6 -2 -3 -0 1
-11 -8 -6 -6 -6 -5 -5 -7 -11 -10 -9 -9 -9 -9 -9 -9 -7 -7 -8 -10 -11 -11 -9 -8 -8 -6 -8 -7 -8 -7 -7 -5 -5 -6 -12 -10 -8 -7 -9 -5 -3 -3 -4 -6 -6 -3 -1 -2 0
-10 -10 -9 -4 -8 -5 -4 -3 -9 -10 -9 -10 -9 -8 -8 -8 -7 -9 -10 -10 -9 -8 -7 -7 -7 -6 -5 -6 -5 -5 -5 -5 -5 -7 -9 -9 -8 -7 -5 -5 -4 -4 -4 -5 -1 -1 -1 -3 -3